Radiation Dose at Monitoring Post of Fukushima Daini Nuclear Power Station
Date,Time,MP-1(microSv/h),MP-2(microSv/h),MP-3(microSv/h),MP-4(microSv/h),MP-5(microSv/h),MP-6(microSv/h),MP-7(microSv/h),Wind Direction,Wind Velocity(m/s),Rain
2015/04/12,00:00,0.527,0.325,0.543,0.505,0.545,0.244,0.215,north-northwest,5.0,No
2015/04/12,00:10,0.529,0.325,0.547,0.505,0.542,0.243,0.215,north-northwest,4.8,No
2015/04/12,00:20,0.527,0.326,0.546,0.505,0.544,0.243,0.215,north-northwest,4.5,No
2015/04/12,00:30,0.526,0.326,0.546,0.506,0.546,0.245,0.215,north,3.4,No
2015/04/12,00:40,0.530,0.325,0.546,0.506,0.544,0.245,0.213,north,2.7,No
2015/04/12,00:50,0.527,0.326,0.546,0.503,0.545,0.245,0.215,north,3.0,No
2015/04/12,01:00,0.527,0.328,0.545,0.505,0.546,0.243,0.215,north,3.8,No
2015/04/12,01:10,0.530,0.324,0.546,0.506,0.544,0.245,0.214,north,4.1,No
2015/04/12,01:20,0.531,0.325,0.545,0.506,0.543,0.245,0.216,north,3.1,No
2015/04/12,01:30,0.529,0.327,0.543,0.507,0.545,0.244,0.214,north-northwest,3.0,No
2015/04/12,01:40,0.529,0.326,0.544,0.507,0.545,0.243,0.214,north,3.5,No
2015/04/12,01:50,0.531,0.326,0.549,0.506,0.544,0.245,0.216,north,4.8,No
2015/04/12,02:00,0.526,0.325,0.548,0.505,0.543,0.245,0.214,north-northwest,5.3,No
2015/04/12,02:10,0.528,0.326,0.546,0.507,0.544,0.244,0.215,north-northwest,5.1,No
2015/04/12,02:20,0.529,0.325,0.547,0.509,0.545,0.244,0.214,north-northwest,4.5,No
2015/04/12,02:30,0.527,0.324,0.548,0.506,0.545,0.243,0.215,north-northwest,3.9,No
2015/04/12,02:40,0.529,0.325,0.546,0.506,0.544,0.244,0.215,north-northwest,4.8,No
2015/04/12,02:50,0.530,0.325,0.547,0.507,0.545,0.245,0.215,north-northwest,4.0,No
2015/04/12,03:00,0.529,0.326,0.546,0.508,0.543,0.244,0.213,north-northwest,3.9,No
2015/04/12,03:10,0.528,0.325,0.549,0.506,0.543,0.245,0.214,north-northwest,3.5,No
2015/04/12,03:20,0.529,0.327,0.546,0.506,0.546,0.244,0.215,north-northwest,3.6,No
2015/04/12,03:30,0.530,0.326,0.546,0.506,0.543,0.244,0.214,north-northwest,3.2,No
2015/04/12,03:40,0.526,0.327,0.547,0.507,0.543,0.245,0.215,north-northwest,3.2,No
2015/04/12,03:50,0.529,0.326,0.548,0.505,0.543,0.243,0.215,north-northwest,3.1,No
2015/04/12,04:00,0.531,0.325,0.546,0.508,0.544,0.243,0.214,north-northwest,3.3,No
2015/04/12,04:10,0.528,0.326,0.547,0.507,0.545,0.245,0.215,north-northwest,2.8,No
2015/04/12,04:20,0.528,0.326,0.548,0.506,0.543,0.245,0.215,north-northwest,3.6,No
2015/04/12,04:30,0.529,0.326,0.545,0.507,0.545,0.244,0.215,northwest,2.5,No
2015/04/12,04:40,0.529,0.327,0.546,0.507,0.543,0.244,0.214,northwest,2.5,No
2015/04/12,04:50,0.528,0.327,0.548,0.506,0.544,0.243,0.214,northwest,3.0,No
2015/04/12,05:00,0.527,0.326,0.548,0.506,0.543,0.244,0.214,northwest,2.6,No
2015/04/12,05:10,0.530,0.325,0.546,0.506,0.544,0.245,0.213,northwest,3.0,No
2015/04/12,05:20,0.529,0.324,0.547,0.508,0.545,0.245,0.215,northwest,2.4,No
2015/04/12,05:30,0.528,0.325,0.546,0.508,0.544,0.245,0.215,north-northwest,3.2,No
2015/04/12,05:40,0.529,0.326,0.548,0.506,0.543,0.245,0.215,north-northwest,2.6,No
2015/04/12,05:50,0.530,0.327,0.545,0.505,0.546,0.244,0.214,north-northwest,3.0,No
2015/04/12,06:00,0.528,0.326,0.546,0.506,0.542,0.244,0.214,north-northwest,3.5,No
2015/04/12,06:10,0.527,0.325,0.549,0.505,0.545,0.244,0.213,north,3.6,No
2015/04/12,06:20,0.530,0.326,0.548,0.505,0.543,0.244,0.214,north,2.5,No
2015/04/12,06:30,0.529,0.327,0.546,0.507,0.544,0.245,0.214,north-northeast,1.7,No
2015/04/12,06:40,0.527,0.326,0.548,0.507,0.544,0.245,0.215,north,2.2,No
2015/04/12,06:50,0.530,0.326,0.548,0.504,0.542,0.243,0.213,north-northeast,1.7,No
2015/04/12,07:00,0.531,0.326,0.546,0.507,0.545,0.246,0.212,north-northeast,1.4,No
2015/04/12,07:10,0.529,0.327,0.546,0.505,0.544,0.244,0.214,north,2.2,No
2015/04/12,07:20,0.529,0.325,0.548,0.505,0.542,0.244,0.213,north,4.3,No
2015/04/12,07:30,0.531,0.326,0.547,0.507,0.546,0.244,0.214,north,6.1,No
2015/04/12,07:40,0.528,0.326,0.544,0.505,0.544,0.244,0.214,north,5.1,No
2015/04/12,07:50,0.530,0.325,0.547,0.503,0.544,0.245,0.214,north,3.2,No
2015/04/12,08:00,0.531,0.324,0.544,0.506,0.546,0.244,0.214,north,3.3,No
2015/04/12,08:10,0.527,0.325,0.549,0.504,0.547,0.245,0.215,north-northeast,2.6,No
2015/04/12,08:20,0.531,0.325,0.549,0.505,0.546,0.244,0.213,northeast,2.8,No
2015/04/12,08:30,0.525,0.325,0.546,0.506,0.546,0.243,0.216,northeast,3.9,No
2015/04/12,08:40,0.528,0.326,0.548,0.507,0.543,0.245,0.214,northeast,4.2,No
2015/04/12,08:50,0.527,0.325,0.546,0.506,0.546,0.243,0.215,northeast,4.2,No
2015/04/12,09:00,0.530,0.327,0.548,0.507,0.545,0.245,0.215,north-northeast,2.9,No
2015/04/12,09:10,0.526,0.325,0.550,0.507,0.550,0.244,0.216,northeast,3.3,No
2015/04/12,09:20,0.531,0.326,0.546,0.505,0.546,0.245,0.216,east-northeast,3.1,No
2015/04/12,09:30,0.529,0.326,0.549,0.509,0.549,0.244,0.217,east-northeast,3.1,No
2015/04/12,09:40,0.530,0.328,0.548,0.505,0.545,0.244,0.216,northeast,3.4,No
2015/04/12,09:50,0.529,0.326,0.548,0.509,0.549,0.245,0.215,northeast,3.3,No
2015/04/12,10:00,0.531,0.328,0.550,0.504,0.548,0.245,0.216,northeast,2.2,No
2015/04/12,10:10,0.527,0.326,0.548,0.509,0.551,0.245,0.216,east,2.8,No
2015/04/12,10:20,0.532,0.328,0.551,0.509,0.548,0.246,0.217,east,2.1,No
2015/04/12,10:30,0.528,0.326,0.548,0.507,0.551,0.245,0.216,east,1.4,No
2015/04/12,10:40,0.533,0.327,0.548,0.512,0.548,0.245,0.216,east-northeast,2.4,No
2015/04/12,10:50,0.528,0.325,0.547,0.509,0.551,0.246,0.217,east-northeast,1.4,No
2015/04/12,11:00,0.532,0.327,0.547,0.513,0.548,0.246,0.216,east,1.2,No
2015/04/12,11:10,0.526,0.326,0.545,0.509,0.551,0.246,0.216,east,2.5,No
2015/04/12,11:20,0.533,0.327,0.550,0.514,0.548,0.245,0.217,east-northeast,2.2,No
2015/04/12,11:30,0.528,0.325,0.545,0.508,0.550,0.247,0.217,northeast,2.4,No
2015/04/12,11:40,0.532,0.327,0.553,0.514,0.548,0.244,0.218,east,2.7,No
2015/04/12,11:50,0.527,0.325,0.546,0.508,0.554,0.247,0.218,east-northeast,2.5,No
2015/04/12,12:00,0.531,0.328,0.551,0.514,0.546,0.245,0.218,northeast,3.3,No
2015/04/12,12:10,0.529,0.326,0.548,0.508,0.551,0.246,0.217,northeast,3.6,No
2015/04/12,12:20,0.534,0.328,0.548,0.510,0.547,0.244,0.218,northeast,2.9,No
2015/04/12,12:30,0.531,0.325,0.550,0.513,0.553,0.247,0.217,northeast,3.1,No
2015/04/12,12:40,0.533,0.327,0.548,0.509,0.546,0.245,0.218,northeast,3.2,No
2015/04/12,12:50,0.533,0.327,0.553,0.514,0.551,0.247,0.217,northeast,2.3,No
2015/04/12,13:00,0.533,0.329,0.548,0.509,0.549,0.245,0.219,east-northeast,1.9,No
2015/04/12,13:10,0.532,0.327,0.553,0.513,0.549,0.246,0.218,northeast,2.5,No
2015/04/12,13:20,0.532,0.328,0.550,0.512,0.552,0.249,0.219,east-northeast,2.4,No
2015/04/12,13:30,0.533,0.327,0.553,0.511,0.548,0.246,0.218,east,2.8,No
2015/04/12,13:40,0.535,0.329,0.555,0.513,0.554,0.249,0.220,east,1.3,No
2015/04/12,13:50,0.532,0.328,0.549,0.510,0.548,0.245,0.219,east-southeast,0.6,No
2015/04/12,14:00,0.534,0.329,0.555,0.517,0.553,0.246,0.218,-,CALM,No
2015/04/12,14:10,0.533,0.329,0.551,0.509,0.549,0.245,0.218,south-southwest,0.7,No
2015/04/12,14:20,0.532,0.328,0.553,0.515,0.553,0.248,0.220,-,CALM,No
2015/04/12,14:30,0.533,0.328,0.552,0.513,0.549,0.247,0.217,south-southwest,0.8,No
2015/04/12,14:40,0.534,0.329,0.551,0.517,0.553,0.247,0.219,east,1.9,No
2015/04/12,14:50,0.533,0.328,0.554,0.512,0.551,0.246,0.219,east-southeast,1.9,No
2015/04/12,15:00,0.533,0.329,0.551,0.517,0.550,0.247,0.219,east-southeast,1.8,No
2015/04/12,15:10,0.533,0.326,0.555,0.513,0.552,0.246,0.220,southeast,1.7,No
2015/04/12,15:20,0.534,0.329,0.552,0.518,0.552,0.249,0.218,southeast,1.9,No
2015/04/12,15:30,0.532,0.327,0.553,0.515,0.551,0.248,0.221,southeast,2.2,No
2015/04/12,15:40,0.535,0.330,0.552,0.514,0.552,0.248,0.219,southeast,2.2,No
2015/04/12,15:50,0.531,0.328,0.554,0.517,0.552,0.247,0.219,southeast,2.0,No
2015/04/12,16:00,0.536,0.330,0.556,0.515,0.554,0.247,0.220,south-southeast,1.7,No
2015/04/12,16:10,0.531,0.328,0.555,0.517,0.552,0.246,0.219,south-southeast,1.7,No
2015/04/12,16:20,0.536,0.328,0.557,0.514,0.551,0.247,0.219,south,2.2,No
2015/04/12,16:30,0.531,0.331,0.552,0.515,0.550,0.247,0.220,south,2.6,No
2015/04/12,16:40,0.535,0.328,0.559,0.516,0.553,0.248,0.219,south,2.9,No
2015/04/12,16:50,0.532,0.329,0.553,0.514,0.550,0.247,0.218,south,3.3,No
2015/04/12,17:00,0.532,0.328,0.557,0.516,0.554,0.247,0.219,south-southeast,3.4,No
2015/04/12,17:10,0.534,0.327,0.554,0.517,0.549,0.247,0.219,south,3.4,No
2015/04/12,17:20,0.533,0.329,0.553,0.516,0.553,0.247,0.219,south,3.9,No
2015/04/12,17:30,0.537,0.328,0.556,0.517,0.553,0.246,0.219,south,3.3,No
2015/04/12,17:40,0.534,0.329,0.551,0.516,0.554,0.248,0.220,south,4.2,No
2015/04/12,17:50,0.535,0.330,0.557,0.515,0.551,0.247,0.219,south,4.0,No
2015/04/12,18:00,0.536,0.327,0.555,0.517,0.553,0.247,0.220,south,4.6,No
2015/04/12,18:10,0.532,0.329,0.553,0.513,0.555,0.246,0.218,south,4.8,No
2015/04/12,18:20,0.535,0.330,0.554,0.514,0.553,0.247,0.219,south,4.8,No
2015/04/12,18:30,0.534,0.328,0.554,0.516,0.549,0.249,0.221,south,4.3,No
2015/04/12,18:40,0.534,0.329,0.554,0.514,0.551,0.247,0.220,south,4.4,No
2015/04/12,18:50,0.534,0.330,0.557,0.514,0.551,0.247,0.221,south,4.2,No
2015/04/12,19:00,0.533,0.327,0.553,0.515,0.547,0.248,0.220,south,4.1,No
2015/04/12,19:10,0.535,0.329,0.553,0.514,0.552,0.245,0.218,south,3.6,No
2015/04/12,19:20,0.536,0.327,0.556,0.515,0.551,0.248,0.220,south,4.4,No
2015/04/12,19:30,0.533,0.327,0.553,0.515,0.549,0.247,0.219,south,4.7,No
2015/04/12,19:40,0.533,0.329,0.553,0.514,0.551,0.246,0.220,south,4.4,No
2015/04/12,19:50,0.532,0.329,0.555,0.514,0.550,0.247,0.219,south,4.4,No
2015/04/12,20:00,0.533,0.328,0.552,0.514,0.550,0.248,0.220,south,4.9,No
2015/04/12,20:10,0.534,0.328,0.556,0.514,0.551,0.248,0.218,south,4.5,No
2015/04/12,20:20,0.533,0.329,0.553,0.515,0.549,0.247,0.220,south,4.7,No
2015/04/12,20:30,0.533,0.327,0.551,0.516,0.550,0.247,0.220,south,4.9,No
2015/04/12,20:40,0.534,0.328,0.555,0.515,0.551,0.246,0.219,south,4.0,No
2015/04/12,20:50,0.531,0.329,0.554,0.516,0.550,0.248,0.220,south,3.8,No
2015/04/12,21:00,0.534,0.330,0.552,0.516,0.549,0.248,0.219,south,4.1,No
2015/04/12,21:10,0.536,0.328,0.555,0.513,0.551,0.247,0.220,south,3.8,No
2015/04/12,21:20,0.531,0.330,0.555,0.513,0.551,0.247,0.219,south,4.2,No
2015/04/12,21:30,0.535,0.329,0.553,0.515,0.551,0.246,0.219,south,4.4,No
2015/04/12,21:40,0.533,0.328,0.556,0.513,0.552,0.248,0.220,south,4.4,No
2015/04/12,21:50,0.533,0.328,0.556,0.516,0.548,0.248,0.221,south,4.0,No
2015/04/12,22:00,0.536,0.329,0.554,0.516,0.551,0.248,0.219,south,4.2,No
2015/04/12,22:10,0.533,0.328,0.557,0.515,0.552,0.248,0.220,south,4.4,No
2015/04/12,22:20,0.534,0.329,0.553,0.516,0.550,0.248,0.221,south,4.8,No
2015/04/12,22:30,0.535,0.330,0.554,0.517,0.551,0.248,0.220,south,5.2,No
2015/04/12,22:40,0.534,0.329,0.557,0.514,0.552,0.247,0.220,south,5.8,No
2015/04/12,22:50,0.533,0.328,0.554,0.514,0.550,0.248,0.221,south,5.6,No
2015/04/12,23:00,0.534,0.330,0.553,0.514,0.550,0.248,0.220,south,5.9,No
2015/04/12,23:10,0.532,0.328,0.555,0.514,0.552,0.247,0.219,south,5.6,No
2015/04/12,23:20,0.535,0.330,0.556,0.515,0.550,0.247,0.219,south,4.8,No
2015/04/12,23:30,0.535,0.329,0.554,0.516,0.550,0.248,0.220,south-southwest,4.0,No
2015/04/12,23:40,0.534,0.330,0.555,0.514,0.551,0.248,0.220,south,3.2,No
2015/04/12,23:50,0.534,0.328,0.558,0.515,0.551,0.248,0.220,south,2.9,No
